Flag for Germany Weather past 2 weeks in Filderstadt, Baden-Württemberg, Germany

Now
49 °F

Overcast.


Feels Like: 46 °F
Forecast: 35 / 59 °F
Wind: 7 mph from Northwest

Location: Stuttgart-Echterdingen

Current Time: Apr 28, 2015 at 3:03:07 PM

Latest Report: Apr 28, 2015 at 2:00 PM


Visibility: 25 mi

Pressure: 30.04 "Hg

Humidity: 68%

Dew point: 38 °F

Location of FilderstadtLocation

Historic Weather in Filderstadt — Graph

°F

Filderstadt temperature yesterday

Maximum temperature yesterday: 65 °F (at 4:00 PM)
Minimum temperature yesterday: 52 °F (at 6:00 AM)
Average temperature yesterday: 59 °F

Past Weeks' High & Low Weather Summary

 TemperatureHumidityPressure
High77 °F (Apr 15, 4:00 PM)98% (Apr 28, 2:00 AM)30.47 "Hg (Apr 28, 2:00 AM)
Low34 °F (Apr 23, 7:00 AM)17% (Apr 15, 3:00 PM)29.50 "Hg (Apr 27, 6:00 PM)
Average54 °F57%30.07 "Hg
* Reported Apr 13 2:00 PM — Apr 28 2:00 PM, Filderstadt, Weather by CustomWeather, © 2015

Note: Actual official high and low records may vary slightly from our data, if they occured in-between our weather recording intervals... More about our weather records

Advertising

Filderstadt weather history for previous 24 hours

 ConditionsComfort  
Time TempWeatherWind HumidityBarometerVisibility
2:00 PM
Tue, Apr 28
49 °FOvercast.7 mph68%30.04 "Hg25 mi
1:00 PM49 °FOvercast.6 mph60%30.02 "Hg16 mi
12:00 PM46 °FOvercast.7 mph72%30.01 "Hg12 mi
11:00 AM44 °FOvercast.7 mph82%29.99 "Hg9 mi
10:00 AM43 °FLow clouds.9 mph90%29.96 "Hg4 mi
9:00 AM43 °FLight rain. Low clouds.8 mph92%29.92 "Hg4 mi
8:00 AM43 °FLight rain. Overcast.9 mph92%29.88 "Hg4 mi
7:00 AM43 °FDrizzle. Low clouds.8 mph93%29.83 "Hg3 mi
6:00 AM44 °FRain. Low clouds.7 mph93%29.79 "Hg4 mi
4:00 AM45 °FDrizzle. Low clouds.7 mph95%29.73 "Hg4 mi
3:00 AM45 °FLow clouds.9 mph94%29.71 "Hg6 mi
2:00 AM46 °FFog.9 mph98%29.70 "Hg2 mi
1:00 AM47 °FLow clouds.9 mph97%29.67 "Hg5 mi
12:00 AM50 °FLight rain. Low clouds.8 mph96%29.65 "Hg4 mi
10:00 PM
Mon, Apr 27
52 °FLight rain. Low clouds.8 mph94%29.62 "Hg7 mi
9:00 PM54 °FThundershowers. Overcast.9 mph93%29.58 "Hg3 mi
8:00 PM57 °FThunderstorms. Overcast.8 mph84%29.54 "Hg31 mi
7:00 PM63 °FOvercast.7 mph62%29.50 "Hg37 mi
6:00 PM64 °FOvercast.6 mph58%29.50 "Hg37 mi
4:00 PM65 °FOvercast.5 mph58%29.54 "Hg37 mi
3:00 PM63 °FOvercast.7 mph60%29.56 "Hg37 mi
Weather by CustomWeather, © 2015

See weather overviewHow to use our weather pages